Time,TemperatureF,DewpointF,PressureIn,WindDirection,WindDirectionDegrees,WindSpeedMPH,WindSpeedGustMPH,Humidity,HourlyPrecipIn,Conditions,Clouds,dailyrainin,SoftwareType,DateUTC
2013-06-29 00:00:00,90.7,35.6,27.30,ENE,68,0.0,0.0,15,0.00,,,0.00,WUHU216HW,2013-06-29 07:00:00,
2013-06-29 00:01:00,90.7,35.6,27.29,ENE,68,0.0,0.0,15,0.00,,,0.00,WUHU216HW,2013-06-29 07:01:00,
2013-06-29 00:06:00,90.7,35.6,27.30,ENE,68,0.0,0.0,15,0.00,,,0.00,WUHU216HW,2013-06-29 07:06:00,
2013-06-29 00:30:00,90.0,34.9,27.30,ESE,113,0.0,0.0,15,0.00,,,0.00,WUHU216HW,2013-06-29 07:30:00,
2013-06-29 00:32:00,90.0,34.9,27.30,ESE,113,0.0,0.0,15,0.00,,,0.00,WUHU216HW,2013-06-29 07:32:00,
2013-06-29 00:37:00,90.0,34.9,27.30,ESE,113,0.0,0.0,15,0.00,,,0.00,WUHU216HW,2013-06-29 07:37:00,
2013-06-29 01:00:00,88.7,35.7,27.29,ENE,68,0.0,0.0,16,0.00,,,0.00,WUHU216HW,2013-06-29 08:00:00,
2013-06-29 01:01:00,88.9,35.8,27.29,ENE,68,0.0,0.0,16,0.00,,,0.00,WUHU216HW,2013-06-29 08:01:00,
2013-06-29 01:06:00,88.7,35.7,27.29,ENE,68,0.0,0.0,16,0.00,,,0.00,WUHU216HW,2013-06-29 08:06:00,
2013-06-29 01:30:00,86.2,37.1,27.30,NNE,23,0.0,0.0,18,0.00,,,0.00,WUHU216HW,2013-06-29 08:30:00,
2013-06-29 01:32:00,86.2,37.1,27.30,NNE,23,0.0,0.0,18,0.00,,,0.00,WUHU216HW,2013-06-29 08:32:00,
2013-06-29 01:37:00,86.2,37.1,27.30,NNE,23,0.0,0.0,18,0.00,,,0.00,WUHU216HW,2013-06-29 08:37:00,
2013-06-29 02:00:00,85.0,37.7,27.30,NNE,23,0.0,0.0,19,0.00,,,0.00,WUHU216HW,2013-06-29 09:00:00,
2013-06-29 02:01:00,85.1,37.9,27.30,NNE,23,0.0,0.0,19,0.00,,,0.00,WUHU216HW,2013-06-29 09:01:00,
2013-06-29 02:06:00,85.0,37.7,27.30,NNE,23,0.0,0.0,19,0.00,,,0.00,WUHU216HW,2013-06-29 09:06:00,
2013-06-29 02:30:00,84.2,37.2,27.29,North,0,1.1,1.1,19,0.00,,,0.00,WUHU216HW,2013-06-29 09:30:00,
2013-06-29 02:32:00,84.2,37.2,27.29,North,0,0.9,0.9,19,0.00,,,0.00,WUHU216HW,2013-06-29 09:32:00,
2013-06-29 02:37:00,84.2,37.2,27.29,North,0,1.1,1.1,19,0.00,,,0.00,WUHU216HW,2013-06-29 09:37:00,
2013-06-29 03:00:00,83.2,39.1,27.29,NNE,23,0.0,0.0,21,0.00,,,0.00,WUHU216HW,2013-06-29 10:00:00,
2013-06-29 03:01:00,83.2,39.1,27.29,NNE,23,0.0,0.0,21,0.00,,,0.00,WUHU216HW,2013-06-29 10:01:00,
2013-06-29 03:06:00,83.2,39.1,27.29,NNE,23,0.0,0.0,21,0.00,,,0.00,WUHU216HW,2013-06-29 10:06:00,
2013-06-29 03:30:00,82.1,38.2,27.29,NNW,338,0.4,0.4,21,0.00,,,0.00,WUHU216HW,2013-06-29 10:30:00,
2013-06-29 03:32:00,81.9,38.1,27.29,NNW,338,0.4,0.4,21,0.00,,,0.00,WUHU216HW,2013-06-29 10:32:00,
2013-06-29 03:37:00,82.1,38.2,27.29,NNW,338,0.4,0.4,21,0.00,,,0.00,WUHU216HW,2013-06-29 10:37:00,
2013-06-29 04:00:00,81.5,38.8,27.30,NNE,23,0.0,0.0,22,0.00,,,0.00,WUHU216HW,2013-06-29 11:00:00,
2013-06-29 04:01:00,81.5,38.8,27.30,NNE,23,0.0,0.0,22,0.00,,,0.00,WUHU216HW,2013-06-29 11:01:00,
2013-06-29 04:06:00,81.5,38.8,27.30,NNE,23,0.0,0.0,22,0.00,,,0.00,WUHU216HW,2013-06-29 11:06:00,
2013-06-29 04:30:00,80.6,38.1,27.30,NW,315,0.0,0.0,22,0.00,,,0.00,WUHU216HW,2013-06-29 11:30:00,
2013-06-29 04:32:00,80.6,38.1,27.30,NW,315,0.0,0.0,22,0.00,,,0.00,WUHU216HW,2013-06-29 11:32:00,
2013-06-29 04:37:00,80.6,38.1,27.30,NW,315,0.0,0.0,22,0.00,,,0.00,WUHU216HW,2013-06-29 11:37:00,
2013-06-29 05:00:00,79.7,38.4,27.31,SE,135,0.2,0.2,23,0.00,,,0.00,WUHU216HW,2013-06-29 12:00:00,
2013-06-29 05:01:00,79.7,38.4,27.31,SE,135,0.0,0.0,23,0.00,,,0.00,WUHU216HW,2013-06-29 12:01:00,
2013-06-29 05:06:00,79.7,38.4,27.31,SE,135,0.2,0.2,23,0.00,,,0.00,WUHU216HW,2013-06-29 12:06:00,
2013-06-29 05:30:00,80.1,38.6,27.31,NE,45,0.4,0.4,23,0.00,,,0.00,WUHU216HW,2013-06-29 12:30:00,
2013-06-29 05:32:00,80.1,37.6,27.31,NNE,23,0.4,0.4,22,0.00,,,0.00,WUHU216HW,2013-06-29 12:32:00,
2013-06-29 05:37:00,80.1,38.6,27.31,NE,45,0.4,0.4,23,0.00,,,0.00,WUHU216HW,2013-06-29 12:37:00,
2013-06-29 06:00:00,80.6,39.2,27.32,North,0,0.0,0.0,23,0.00,,,0.00,WUHU216HW,2013-06-29 13:00:00,
2013-06-29 06:01:00,80.6,39.2,27.32,North,0,0.0,0.0,23,0.00,,,0.00,WUHU216HW,2013-06-29 13:01:00,
2013-06-29 06:06:00,80.6,39.2,27.32,North,0,0.0,0.0,23,0.00,,,0.00,WUHU216HW,2013-06-29 13:06:00,
2013-06-29 06:30:00,81.0,40.5,27.33,North,0,0.4,0.4,24,0.00,,,0.00,WUHU216HW,2013-06-29 13:30:00,
2013-06-29 06:32:00,81.0,40.5,27.33,North,0,0.4,0.4,24,0.00,,,0.00,WUHU216HW,2013-06-29 13:32:00,
2013-06-29 06:37:00,81.0,40.5,27.33,North,0,0.4,0.4,24,0.00,,,0.00,WUHU216HW,2013-06-29 13:37:00,
2013-06-29 07:00:00,82.6,41.8,27.33,NNE,23,0.4,1.1,24,0.00,,,0.00,WUHU216HW,2013-06-29 14:00:00,
2013-06-29 07:01:00,82.6,41.8,27.33,NE,45,1.1,1.1,24,0.00,,,0.00,WUHU216HW,2013-06-29 14:01:00,
2013-06-29 07:06:00,82.6,41.8,27.33,NNE,23,0.4,1.1,24,0.00,,,0.00,WUHU216HW,2013-06-29 14:06:00,
2013-06-29 07:30:00,85.3,42.9,27.33,South,180,0.4,0.7,23,0.00,,,0.00,WUHU216HW,2013-06-29 14:30:00,
2013-06-29 07:32:00,85.3,42.9,27.33,SW,225,0.7,0.7,23,0.00,,,0.00,WUHU216HW,2013-06-29 14:32:00,
2013-06-29 07:37:00,85.3,42.9,27.33,South,180,0.4,0.7,23,0.00,,,0.00,WUHU216HW,2013-06-29 14:37:00,
2013-06-29 08:00:00,86.8,44.2,27.33,South,180,0.4,0.4,23,0.00,,,0.00,WUHU216HW,2013-06-29 15:00:00,
2013-06-29 08:01:00,86.8,44.2,27.33,SSE,158,0.0,0.0,23,0.00,,,0.00,WUHU216HW,2013-06-29 15:01:00,
2013-06-29 08:06:00,86.8,44.2,27.33,South,180,0.4,0.4,23,0.00,,,0.00,WUHU216HW,2013-06-29 15:06:00,
2013-06-29 08:30:00,90.9,44.4,27.33,SE,135,0.9,0.9,20,0.00,,,0.00,WUHU216HW,2013-06-29 15:30:00,
2013-06-29 08:32:00,90.9,44.4,27.33,SE,135,0.7,0.7,20,0.00,,,0.00,WUHU216HW,2013-06-29 15:32:00,
2013-06-29 08:37:00,90.9,44.4,27.33,SE,135,0.9,0.9,20,0.00,,,0.00,WUHU216HW,2013-06-29 15:37:00,
2013-06-29 09:00:00,97.0,42.3,27.33,SSE,158,1.8,1.8,16,0.00,,,0.00,WUHU216HW,2013-06-29 16:00:00,
2013-06-29 09:01:00,96.8,42.1,27.33,SW,225,0.2,0.2,16,0.00,,,0.00,WUHU216HW,2013-06-29 16:01:00,
2013-06-29 09:06:00,97.0,42.3,27.33,SSE,158,1.8,1.8,16,0.00,,,0.00,WUHU216HW,2013-06-29 16:06:00,
2013-06-29 09:30:00,100.3,44.8,27.33,SE,135,1.8,2.5,16,0.00,,,0.00,WUHU216HW,2013-06-29 16:30:00,
2013-06-29 09:32:00,100.1,44.7,27.33,ESE,113,2.5,2.5,16,0.00,,,0.00,WUHU216HW,2013-06-29 16:32:00,
2013-06-29 09:37:00,100.3,44.8,27.33,SE,135,1.8,2.5,16,0.00,,,0.00,WUHU216HW,2013-06-29 16:37:00,
2013-06-29 10:00:00,101.5,42.2,27.33,SSW,203,1.8,2.5,14,0.00,,,0.00,WUHU216HW,2013-06-29 17:00:00,
2013-06-29 10:01:00,101.3,42.0,27.33,SSE,158,2.5,2.5,14,0.00,,,0.00,WUHU216HW,2013-06-29 17:01:00,
2013-06-29 10:06:00,101.5,42.2,27.33,SSW,203,1.8,2.5,14,0.00,,,0.00,WUHU216HW,2013-06-29 17:06:00,
2013-06-29 10:30:00,103.3,43.6,27.33,SE,135,2.5,2.5,14,0.00,,,0.00,WUHU216HW,2013-06-29 17:30:00,
2013-06-29 10:32:00,103.3,43.6,27.33,SSE,158,2.5,2.5,14,0.00,,,0.00,WUHU216HW,2013-06-29 17:32:00,
2013-06-29 10:37:00,103.3,43.6,27.33,SE,135,2.5,2.5,14,0.00,,,0.00,WUHU216HW,2013-06-29 17:37:00,
2013-06-29 11:00:00,106.0,41.9,27.33,ESE,113,4.0,4.0,12,0.00,,,0.00,WUHU216HW,2013-06-29 18:00:00,
2013-06-29 11:01:00,106.0,40.1,27.33,SSW,203,4.0,4.0,11,0.00,,,0.00,WUHU216HW,2013-06-29 18:01:00,
2013-06-29 11:06:00,106.0,41.9,27.33,ESE,113,4.0,4.0,12,0.00,,,0.00,WUHU216HW,2013-06-29 18:06:00,
2013-06-29 11:30:00,106.9,40.9,27.32,SSW,203,4.9,4.9,11,0.00,,,0.00,WUHU216HW,2013-06-29 18:30:00,
2013-06-29 11:32:00,106.9,40.9,27.32,SSE,158,4.5,4.5,11,0.00,,,0.00,WUHU216HW,2013-06-29 18:32:00,
2013-06-29 11:37:00,106.9,40.9,27.32,SSW,203,4.9,4.9,11,0.00,,,0.00,WUHU216HW,2013-06-29 18:37:00,
2013-06-29 12:00:00,106.6,40.6,27.31,South,180,2.9,3.8,11,0.00,,,0.00,WUHU216HW,2013-06-29 19:00:00,
2013-06-29 12:01:00,106.7,40.8,27.31,SW,225,3.8,3.8,11,0.00,,,0.00,WUHU216HW,2013-06-29 19:01:00,
2013-06-29 12:06:00,106.6,40.6,27.31,South,180,2.9,3.8,11,0.00,,,0.00,WUHU216HW,2013-06-29 19:06:00,
2013-06-29 12:30:00,108.4,43.8,27.30,South,180,2.7,4.0,12,0.00,,,0.00,WUHU216HW,2013-06-29 19:30:00,
2013-06-29 12:32:00,108.4,43.8,27.30,SW,225,4.0,4.0,12,0.00,,,0.00,WUHU216HW,2013-06-29 19:32:00,
2013-06-29 12:37:00,108.4,43.8,27.30,South,180,2.7,4.0,12,0.00,,,0.00,WUHU216HW,2013-06-29 19:37:00,
2013-06-29 13:00:00,108.7,44.1,27.28,SSW,203,2.5,2.5,12,0.00,,,0.00,WUHU216HW,2013-06-29 20:00:00,
2013-06-29 13:01:00,108.7,44.1,27.28,SSW,203,1.8,1.8,12,0.00,,,0.00,WUHU216HW,2013-06-29 20:01:00,
2013-06-29 13:06:00,108.7,44.1,27.28,SSW,203,2.5,2.5,12,0.00,,,0.00,WUHU216HW,2013-06-29 20:06:00,
2013-06-29 13:30:00,108.5,43.9,27.27,SE,135,1.1,1.1,12,0.00,,,0.00,WUHU216HW,2013-06-29 20:30:00,
2013-06-29 13:32:00,108.5,43.9,27.27,SE,135,0.0,0.0,12,0.00,,,0.00,WUHU216HW,2013-06-29 20:32:00,
2013-06-29 13:37:00,108.5,43.9,27.27,SE,135,1.1,1.1,12,0.00,,,0.00,WUHU216HW,2013-06-29 20:37:00,
2013-06-29 14:00:00,110.3,43.5,27.26,SSE,158,3.6,3.6,11,0.00,,,0.00,WUHU216HW,2013-06-29 21:00:00,
2013-06-29 14:01:00,110.2,43.3,27.26,SSE,158,3.6,3.6,11,0.00,,,0.00,WUHU216HW,2013-06-29 21:01:00,
2013-06-29 14:06:00,110.3,43.5,27.26,SSE,158,3.6,3.6,11,0.00,,,0.00,WUHU216HW,2013-06-29 21:06:00,
2013-06-29 14:30:00,110.5,43.6,27.25,SSW,203,2.5,2.5,11,0.00,,,0.00,WUHU216HW,2013-06-29 21:30:00,
2013-06-29 14:32:00,110.5,43.6,27.25,SW,225,2.2,2.2,11,0.00,,,0.00,WUHU216HW,2013-06-29 21:32:00,
2013-06-29 14:37:00,110.5,43.6,27.25,SSW,203,2.5,2.5,11,0.00,,,0.00,WUHU216HW,2013-06-29 21:37:00,
2013-06-29 15:00:00,110.2,43.3,27.24,SE,135,2.5,2.5,11,0.00,,,0.00,WUHU216HW,2013-06-29 22:00:00,
2013-06-29 15:01:00,110.2,43.3,27.24,SE,135,1.1,1.1,11,0.00,,,0.00,WUHU216HW,2013-06-29 22:01:00,
2013-06-29 15:06:00,110.2,43.3,27.24,SE,135,2.5,2.5,11,0.00,,,0.00,WUHU216HW,2013-06-29 22:06:00,
2013-06-29 15:30:00,109.8,43.0,27.22,SSE,158,2.7,2.7,11,0.00,,,0.00,WUHU216HW,2013-06-29 22:30:00,
2013-06-29 15:32:00,109.8,43.0,27.22,SW,225,1.8,1.8,11,0.00,,,0.00,WUHU216HW,2013-06-29 22:32:00,
2013-06-29 15:37:00,109.8,43.0,27.22,SSE,158,2.7,2.7,11,0.00,,,0.00,WUHU216HW,2013-06-29 22:37:00,
2013-06-29 16:00:00,109.6,42.8,27.21,SSW,203,0.9,0.9,11,0.00,,,0.00,WUHU216HW,2013-06-29 23:00:00,
2013-06-29 16:01:00,109.6,42.8,27.21,SSW,203,0.4,0.4,11,0.00,,,0.00,WUHU216HW,2013-06-29 23:01:00,
2013-06-29 16:06:00,109.6,42.8,27.21,SSW,203,0.9,0.9,11,0.00,,,0.00,WUHU216HW,2013-06-29 23:06:00,
2013-06-29 16:30:00,108.7,42.2,27.20,NW,315,1.8,1.8,11,0.00,,,0.00,WUHU216HW,2013-06-29 23:30:00,
2013-06-29 16:32:00,108.7,42.2,27.20,West,270,1.3,1.3,11,0.00,,,0.00,WUHU216HW,2013-06-29 23:32:00,
2013-06-29 16:37:00,108.7,42.2,27.20,NW,315,1.8,1.8,11,0.00,,,0.00,WUHU216HW,2013-06-29 23:37:00,
2013-06-29 17:00:00,107.5,41.3,27.19,West,270,1.3,1.3,11,0.00,,,0.00,WUHU216HW,2013-06-30 00:00:00,
2013-06-29 17:01:00,107.6,41.5,27.19,West,270,1.3,1.3,11,0.00,,,0.00,WUHU216HW,2013-06-30 00:01:00,
2013-06-29 17:06:00,107.5,41.3,27.19,West,270,1.3,1.3,11,0.00,,,0.00,WUHU216HW,2013-06-30 00:06:00,
2013-06-29 17:30:00,105.8,40.0,27.19,North,0,2.5,4.0,11,0.00,,,0.00,WUHU216HW,2013-06-30 00:30:00,
2013-06-29 17:32:00,105.8,40.0,27.19,North,0,3.6,3.6,11,0.00,,,0.00,WUHU216HW,2013-06-30 00:32:00,
2013-06-29 17:37:00,105.8,40.0,27.19,North,0,2.5,4.0,11,0.00,,,0.00,WUHU216HW,2013-06-30 00:37:00,
2013-06-29 18:00:00,104.4,40.8,27.20,NW,315,3.6,3.8,12,0.00,,,0.00,WUHU216HW,2013-06-30 01:00:00,
2013-06-29 18:01:00,104.4,40.8,27.20,SW,225,3.8,3.8,12,0.00,,,0.00,WUHU216HW,2013-06-30 01:01:00,
2013-06-29 18:06:00,104.4,40.8,27.20,NW,315,3.6,3.8,12,0.00,,,0.00,WUHU216HW,2013-06-30 01:06:00,
2013-06-29 18:30:00,103.5,40.2,27.21,NNW,338,7.6,8.5,12,0.00,,,0.00,WUHU216HW,2013-06-30 01:30:00,
2013-06-29 18:32:00,103.5,40.2,27.21,North,0,4.7,4.7,12,0.00,,,0.00,WUHU216HW,2013-06-30 01:32:00,
2013-06-29 18:37:00,103.5,40.2,27.21,NNW,338,7.6,8.5,12,0.00,,,0.00,WUHU216HW,2013-06-30 01:37:00,
2013-06-29 19:00:00,101.5,45.8,27.25,NNE,23,6.9,12.3,16,0.00,,,0.00,WUHU216HW,2013-06-30 02:00:00,
2013-06-29 19:01:00,101.7,46.0,27.25,NNE,23,12.3,12.3,16,0.00,,,0.00,WUHU216HW,2013-06-30 02:01:00,
2013-06-29 19:06:00,101.5,45.8,27.25,NNE,23,6.9,12.3,16,0.00,,,0.00,WUHU216HW,2013-06-30 02:06:00,
2013-06-29 19:30:00,100.1,46.5,27.23,North,0,4.0,5.1,17,0.00,,,0.00,WUHU216HW,2013-06-30 02:30:00,
2013-06-29 19:32:00,100.1,46.5,27.23,NNW,338,5.1,5.1,17,0.00,,,0.00,WUHU216HW,2013-06-30 02:32:00,
2013-06-29 19:37:00,100.1,46.5,27.23,North,0,4.0,5.1,17,0.00,,,0.00,WUHU216HW,2013-06-30 02:37:00,
2013-06-29 20:00:00,99.5,44.3,27.22,NW,315,2.7,2.7,16,0.00,,,0.00,WUHU216HW,2013-06-30 03:00:00,
2013-06-29 20:01:00,99.5,44.3,27.22,NW,315,2.7,2.7,16,0.00,,,0.00,WUHU216HW,2013-06-30 03:01:00,
2013-06-29 20:06:00,99.5,44.3,27.22,NW,315,2.7,2.7,16,0.00,,,0.00,WUHU216HW,2013-06-30 03:06:00,
2013-06-29 20:30:00,99.5,44.3,27.22,East,90,0.9,1.1,16,0.00,,,0.00,WUHU216HW,2013-06-30 03:30:00,
2013-06-29 20:32:00,99.5,44.3,27.22,ESE,113,1.1,1.1,16,0.00,,,0.00,WUHU216HW,2013-06-30 03:32:00,
2013-06-29 20:37:00,99.5,44.3,27.22,East,90,0.9,1.1,16,0.00,,,0.00,WUHU216HW,2013-06-30 03:37:00,
2013-06-29 21:00:00,97.7,42.8,27.22,ESE,113,0.9,0.9,16,0.00,,,0.00,WUHU216HW,2013-06-30 04:00:00,
2013-06-29 21:01:00,97.7,42.8,27.22,ESE,113,0.4,0.4,16,0.00,,,0.00,WUHU216HW,2013-06-30 04:01:00,
2013-06-29 21:02:00,97.7,42.8,27.22,ESE,113,0.7,0.7,16,0.00,,,0.00,WUHU216HW,2013-06-30 04:02:00,
2013-06-29 21:07:00,97.7,42.8,27.22,ESE,113,0.9,0.9,16,0.00,,,0.00,WUHU216HW,2013-06-30 04:07:00,
2013-06-29 21:30:00,96.3,43.5,27.24,East,90,0.0,0.0,17,0.00,,,0.00,WUHU216HW,2013-06-30 04:30:00,
2013-06-29 21:32:00,96.3,43.5,27.24,East,90,0.0,0.0,17,0.00,,,0.00,WUHU216HW,2013-06-30 04:32:00,
2013-06-29 21:37:00,96.3,43.5,27.24,East,90,0.0,0.0,17,0.00,,,0.00,WUHU216HW,2013-06-30 04:37:00,
2013-06-29 22:00:00,95.2,46.1,27.24,NE,45,0.0,0.0,19,0.00,,,0.00,WUHU216HW,2013-06-30 05:00:00,
2013-06-29 22:01:00,95.2,46.1,27.24,NE,45,0.0,0.0,19,0.00,,,0.00,WUHU216HW,2013-06-30 05:01:00,
2013-06-29 22:06:00,95.2,46.1,27.24,NE,45,0.0,0.0,19,0.00,,,0.00,WUHU216HW,2013-06-30 05:06:00,
2013-06-29 22:30:00,93.8,44.9,27.25,NE,45,0.4,0.4,19,0.00,,,0.00,WUHU216HW,2013-06-30 05:30:00,
2013-06-29 22:32:00,93.8,44.9,27.25,NE,45,0.4,0.4,19,0.00,,,0.00,WUHU216HW,2013-06-30 05:32:00,
2013-06-29 22:37:00,93.8,44.9,27.25,NE,45,0.4,0.4,19,0.00,,,0.00,WUHU216HW,2013-06-30 05:37:00,
2013-06-29 23:00:00,96.7,43.7,27.25,WNW,293,0.2,0.2,17,0.00,,,0.00,WUHU216HW,2013-06-30 06:00:00,
2013-06-29 23:01:00,96.7,43.7,27.25,WNW,293,0.2,0.2,17,0.00,,,0.00,WUHU216HW,2013-06-30 06:01:00,
2013-06-29 23:06:00,96.7,43.7,27.25,WNW,293,0.2,0.2,17,0.00,,,0.00,WUHU216HW,2013-06-30 06:06:00,
2013-06-29 23:30:00,95.4,42.8,27.26,WSW,248,1.1,1.1,17,0.00,,,0.00,WUHU216HW,2013-06-30 06:30:00,
2013-06-29 23:32:00,95.4,42.8,27.26,WSW,248,1.1,1.1,17,0.00,,,0.00,WUHU216HW,2013-06-30 06:32:00,
2013-06-29 23:37:00,95.4,42.8,27.26,WSW,248,1.1,1.1,17,0.00,,,0.00,WUHU216HW,2013-06-30 06:37:00,